Weather History for KNFW - July, 2013

Change the Weather History Date:

Monday, July 22, 2013

  Actual Average Record
Temperature  
Mean Temperature 89 °F -  
Max Temperature 99 °F 95 °F 102 °F (1998)
Min Temperature 79 °F 75 °F 73 °F (1999)
Cooling Degree Days 24    
Growing Degree Days 39 (Base 50)    
Moisture  
Dew Point 69 °F    
Average Humidity 53    
Maximum Humidity 79    
Minimum Humidity 34    
Precipitation  
Precipitation 0.00 in - - ()
Sea Level Pressure  
Sea Level Pressure 29.91 in    
Wind  
Wind Speed 13 mph (South)    
Max Wind Speed 16 mph    
Max Gust Speed 23 mph    
Visibility 10 miles    
Events      
Averages and records for this station are not official NWS values.
T = Trace of Precipitation, MM = Missing Value Source: NWS Daily Summary

Daily Weather History Graph

Daily Weather History Graph

Search for Another Location

Airport or City:

Trip Planner

Search our weather history database for the weather conditions in past years. The results will help you decide how hot, cold, wet, or windy it might be!

Date:

Astronomy

Jul. 22, 2013 Rise Set
Actual Time 6:37 AM CDT 8:35 PM CDT
Civil Twilight 6:09 AM CDT 9:02 PM CDT
Nautical Twilight 5:36 AM CDT 9:35 PM CDT
Astronomical Twilight 5:00 AM CDT 10:11 PM CDT
Moon 8:27 PM CDT (7/22) 6:31 AM CDT (7/22)
Length of Visible Light 14h 52m
Length of Day
13h 57m
Full, 100% of the Moon is Illuminated
Jul 22
Full
Jul 22
Full
Jul 29
Last Quarter
Aug 6
New
Aug 14
First Quarter

Hourly Weather History & Observations

Time (CDT) Temp. Heat Index Dew Point Humidity Pressure Visibility Wind Dir Wind Speed Gust Speed Precip Events Conditions
12:52 AM 82.9 °F 87.0 °F 70.0 °F 65% 29.92 in 10.0 mi South 16.1 mph - N/A   Clear
1:52 AM 82.0 °F 85.9 °F 70.0 °F 67% 29.91 in 10.0 mi South 13.8 mph - N/A   Clear
2:52 AM 81.0 °F 84.9 °F 71.1 °F 72% 29.90 in 10.0 mi South 13.8 mph 21.9 mph N/A   Clear
3:52 AM 81.0 °F 84.9 °F 71.1 °F 72% 29.90 in 10.0 mi South 11.5 mph - N/A   Clear
4:52 AM 80.1 °F 83.6 °F 71.1 °F 74% 29.91 in 10.0 mi South 4.6 mph - N/A   Clear
5:52 AM 80.1 °F 83.6 °F 71.1 °F 74% 29.92 in 10.0 mi South 6.9 mph - N/A   Clear
6:52 AM 79.0 °F - 72.0 °F 79% 29.94 in 10.0 mi South 8.1 mph - N/A   Scattered Clouds
7:52 AM 80.1 °F 83.6 °F 71.1 °F 74% 29.94 in 10.0 mi South 13.8 mph - N/A   Scattered Clouds
8:52 AM 84.0 °F 89.0 °F 71.1 °F 65% 29.96 in 10.0 mi SSW 13.8 mph - N/A   Scattered Clouds
9:52 AM 87.1 °F 92.0 °F 70.0 °F 57% 29.97 in 10.0 mi SSW 10.4 mph - N/A   Scattered Clouds
10:52 AM 91.0 °F 97.6 °F 71.1 °F 52% 29.96 in 10.0 mi SSW 13.8 mph - N/A   Scattered Clouds
11:52 AM 91.9 °F 98.4 °F 71.1 °F 50% 29.96 in 10.0 mi SSW 11.5 mph - N/A   Partly Cloudy
12:52 PM 95.0 °F 101.3 °F 70.0 °F 44% 29.95 in 10.0 mi SSW 10.4 mph - N/A   Partly Cloudy
1:52 PM 97.0 °F 102.2 °F 68.0 °F 39% 29.93 in 10.0 mi SSW 11.5 mph 21.9 mph N/A   Clear
2:52 PM 99.0 °F 103.5 °F 66.9 °F 35% 29.91 in 10.0 mi South 16.1 mph - N/A   Scattered Clouds
3:52 PM 99.0 °F 103.5 °F 66.9 °F 35% 29.89 in 10.0 mi SSW 11.5 mph 21.9 mph N/A   Scattered Clouds
4:52 PM 99.0 °F 102.9 °F 66.0 °F 34% 29.88 in 10.0 mi SSW 16.1 mph 19.6 mph N/A   Scattered Clouds
5:52 PM 98.1 °F 101.8 °F 66.0 °F 35% 29.87 in 10.0 mi SSE 13.8 mph 23.0 mph N/A   Scattered Clouds
6:52 PM 97.0 °F 99.3 °F 64.0 °F 34% 29.85 in 10.0 mi South 12.7 mph - N/A   Scattered Clouds
7:52 PM 95.0 °F 97.4 °F 64.9 °F 37% 29.85 in 10.0 mi SSE 11.5 mph - N/A   Clear
8:52 PM 93.0 °F 95.9 °F 66.0 °F 41% 29.86 in 10.0 mi South 11.5 mph - N/A   Clear
9:52 PM 91.9 °F 95.4 °F 66.9 °F 44% 29.89 in 10.0 mi South 12.7 mph - N/A   Clear
10:52 PM 90.0 °F 93.6 °F 68.0 °F 48% 29.91 in 10.0 mi South 9.2 mph - N/A   Clear
11:52 PM 89.1 °F 92.1 °F 66.9 °F 48% 29.91 in 10.0 mi South 13.8 mph - N/A   Clear